Showing default

YAOGAN-31 E, 47533

Orbit data source: Space-Track

YAOGAN-31 E, 47533 is a payload satellite owned by PLA SSF (CN) in LEO that was launched on Fri, 29 Jan 2021 UTC via a CHANG ZHENG 4C launch vehicle from the Jiuquan Satellite Launch Center, China (JSC). Payload-class satellites include a variety of spacecraft equipped with specific instruments for various scientific and technological missions. These include communications satellites like Starlink; space stations such as the ISS; scientific satellites like the Hubble; Earth observation satellites from companies like Planet Labs, Umbra, and HawkEye 360; GPS; miniature CubeSats for education and research; and military/defense satellites.

Loading next visibility...
Identifier
47533, 2021-007B
Orbit
LEO
Country
Flag of CNCN / PRC
Related business
Manufacturer
DFH
Mission
Operational Defense Sigint
Bus & Motor
Unknown
Mass
~500 kg wet, ~500 kg dry
Launch date (UTC)
2021-01-29 (5 years ago)
Launch vehicle
CHANG ZHENG 4C
Launch site
Jiuquan Satellite Launch Center, China (JSC)
Object type
Payload
Rocket body
Debris
Shape & HBR
Box + 2 Pan, 0.5 m
Radar Cross Section
0.446 m², Large (>1 m²)

Expand to show TLE details & history
Last TLE update: 22 hours ago

TLE from 22 hours ago
0 YAOGAN-31 E
1 47533U 21007B   26172.50405770 -.00000087  00000-0  49231-5 0  9998
2 47533  63.4022 131.0303 0176917   0.6531 359.4694 13.45448947264818
Epoch: 2026-06-21T12:05Z
TLE epoch observation values (Epoch: 2026-06-21T12:05:50.585Z)
Latitude
-0°
Longitude
39.86615°
Altitude
958.702 km
Speed
7.438 km/s
True Right ascension
08h 44m 07s
True Declination
0° 00' 00"
Sunlit
Object was in daylight at epoch
Visualization orbit readout
Latitude
Unknown
Longitude
Unknown
Altitude
Unknown
Speed
Unknown
Apparent Right ascension
Unknown
Apparent Declination
Unknown
Sunlit
N/A
Visualization observer readout
Local Sidereal Time
21:25:32
Azimuth
Unknown
Elevation
Unknown
Doppler factor
Unknown
Orbital elements
Apogee altitude
1,219.965 km
Perigee altitude
955.792 km
Semi-major axis
7,466.016 km
Eccentricity
0.01769
Inclination
63.4022°
RAAN
131.0303°
Arg. of periapsis
0.6531°
True anomaly
359.4502°
Mean anomaly
359.4694°
Eccentric anomaly
359.45984°
Mean motion
3.36442 °/min
Orbital period
107 mins
BSTAR
0.0000049231
Loading maneuver chart data...
Computing Atmospheric mass density...
Loading historical data...
Loading historical data...
Loading historical data...
Loading historical data...
Loading historical data...
Loading historical data...
Loading historical data...
Other satellites on launch #7 in the year 2021 (2021-01-29 UTC)

Documentation

Showing up to 5 results
|